• In Deutschland
  • Länderverzeichnis
  • Für 7 Tage
  • Wassertemperatur
  • Satellitenkarten
  • Wetterkarte
  • Widgets
  • user-avatar
    Anmelden

    Stündliche Wetter Missão Velha

    Heute, 24 Juni, Sonntag

    Zeit Temperatur Niederschläge Wind Luftdruck Luftfeuchtigkeit
    00:00 +22°C° 0 mm 3 m/S 731 mmHg 81%
    01:00 +21°C° 0 mm 3 m/S 731 mmHg 84%
    02:00 +20°C° 0 mm 3 m/S 730 mmHg 86%
    03:00 +19°C° 0 mm 3 m/S 730 mmHg 90%
    04:00 +19°C° 0 mm 3 m/S 730 mmHg 91%
    05:00 +18°C° 0 mm 3 m/S 730 mmHg 92%
    06:00 +18°C° 0 mm 3 m/S 730 mmHg 93%
    07:00 +20°C° 0 mm 3 m/S 731 mmHg 84%
    08:00 +22°C° 0 mm 4 m/S 731 mmHg 75%
    09:00 +25°C° 0 mm 4 m/S 732 mmHg 67%
    10:00 +26°C° 0 mm 4 m/S 731 mmHg 65%
    11:00 +27°C° 0 mm 4 m/S 731 mmHg 62%
    12:00 +28°C° 0 mm 4 m/S 731 mmHg 60%
    13:00 +27°C° 0 mm 4 m/S 730 mmHg 60%
    14:00 +27°C° 0 mm 4 m/S 730 mmHg 61%
    15:00 +27°C° 0 mm 4 m/S 730 mmHg 61%
    16:00 +26°C° 0 mm 3 m/S 730 mmHg 66%
    17:00 +25°C° 0 mm 2 m/S 730 mmHg 71%
    18:00 +24°C° 0 mm 2 m/S 729 mmHg 77%
    19:00 +23°C° 0 mm 2 m/S 730 mmHg 79%
    20:00 +23°C° 0 mm 2 m/S 730 mmHg 82%
    21:00 +21°C° 0 mm 2 m/S 730 mmHg 84%
    22:00 +21°C° 0 mm 2 m/S 731 mmHg 86%
    23:00 +21°C° 0 mm 3 m/S 731 mmHg 88%

    Morgen, 25 Juni, Montag

    Zeit Temperatur Niederschläge Wind Luftdruck Luftfeuchtigkeit
    00:00 +20°C° 0 mm 3 m/S 731 mmHg 89%
    01:00 +20°C° 0 mm 3 m/S 730 mmHg 91%
    02:00 +19°C° 0 mm 3 m/S 730 mmHg 93%
    03:00 +19°C° 0 mm 3 m/S 730 mmHg 94%
    04:00 +18°C° 0 mm 3 m/S 730 mmHg 94%
    05:00 +18°C° 0 mm 2 m/S 730 mmHg 95%
    06:00 +18°C° 0 mm 2 m/S 730 mmHg 95%
    07:00 +20°C° 0 mm 3 m/S 731 mmHg 83%
    08:00 +24°C° 0 mm 3 m/S 731 mmHg 72%
    09:00 +26°C° 0 mm 4 m/S 732 mmHg 60%
    10:00 +28°C° 0 mm 4 m/S 731 mmHg 55%
    11:00 +29°C° 0 mm 4 m/S 731 mmHg 49%
    12:00 +32°C° 0 mm 4 m/S 731 mmHg 44%
    13:00 +31°C° 0 mm 3 m/S 730 mmHg 44%
    14:00 +31°C° 0 mm 3 m/S 730 mmHg 43%
    15:00 +31°C° 0 mm 3 m/S 729 mmHg 43%
    16:00 +29°C° 0 mm 3 m/S 729 mmHg 49%
    17:00 +28°C° 0 mm 3 m/S 729 mmHg 56%
    18:00 +26°C° 0 mm 2 m/S 729 mmHg 62%
    19:00 +25°C° 0 mm 2 m/S 729 mmHg 66%
    20:00 +24°C° 0 mm 2 m/S 730 mmHg 70%
    21:00 +24°C° 0 mm 2 m/S 730 mmHg 74%
    22:00 +23°C° 0 mm 2 m/S 730 mmHg 78%
    23:00 +21°C° 0 mm 2 m/S 730 mmHg 83%

    übermorgen, 26 Juni, Dienstag

    Zeit Temperatur Niederschläge Wind Luftdruck Luftfeuchtigkeit
    00:00 +21°C° 0 mm 2 m/S 730 mmHg 87%
    01:00 +20°C° 0 mm 2 m/S 730 mmHg 89%
    02:00 +20°C° 0 mm 2 m/S 729 mmHg 91%
    03:00 +19°C° 0 mm 2 m/S 729 mmHg 93%
    04:00 +19°C° 0 mm 2 m/S 729 mmHg 94%
    05:00 +19°C° 0 mm 2 m/S 729 mmHg 94%
    06:00 +18°C° 0 mm 2 m/S 729 mmHg 95%
    07:00 +21°C° 0 mm 2 m/S 730 mmHg 84%
    08:00 +24°C° 0 mm 3 m/S 731 mmHg 73%
    09:00 +27°C° 0 mm 3 m/S 731 mmHg 62%
    10:00 +29°C° 0 mm 3 m/S 731 mmHg 54%
    11:00 +30°C° 0 mm 3 m/S 731 mmHg 46%
    12:00 +33°C° 0 mm 3 m/S 730 mmHg 39%
    13:00 +34°C° 0 mm 3 m/S 730 mmHg 37%
    14:00 +34°C° 0 mm 2 m/S 729 mmHg 36%
    15:00 +34°C° 0 mm 2 m/S 728 mmHg 35%
    16:00 +31°C° 0 mm 2 m/S 729 mmHg 41%
    17:00 +29°C° 0 mm 2 m/S 729 mmHg 47%
    18:00 +27°C° 0 mm 1 m/S 729 mmHg 53%
    19:00 +26°C° 0 mm 1 m/S 729 mmHg 57%
    20:00 +25°C° 0 mm 1 m/S 730 mmHg 61%
    21:00 +25°C° 0 mm 1 m/S 730 mmHg 65%
    22:00 +24°C° 0,2 mm 1 m/S 731 mmHg 73%
    23:00 +23°C° 0,2 mm 1 m/S 731 mmHg 80%

    27 Juni, Mittwoch

    Zeit Temperatur Niederschläge Wind Luftdruck Luftfeuchtigkeit
    00:00 +21°C° 0,2 mm 2 m/S 731 mmHg 87%
    01:00 +21°C° 0,1 mm 2 m/S 730 mmHg 89%
    02:00 +21°C° 0,1 mm 2 m/S 730 mmHg 91%
    03:00 +21°C° 0,1 mm 2 m/S 730 mmHg 93%
    04:00 +21°C° 0 mm 2 m/S 730 mmHg 93%
    05:00 +21°C° 0 mm 2 m/S 730 mmHg 94%
    06:00 +20°C° 0 mm 2 m/S 731 mmHg 94%
    07:00 +23°C° 0 mm 2 m/S 731 mmHg 84%
    08:00 +25°C° 0 mm 3 m/S 732 mmHg 74%
    09:00 +27°C° 0 mm 3 m/S 732 mmHg 64%
    10:00 +29°C° 0 mm 3 m/S 732 mmHg 57%
    11:00 +30°C° 0 mm 3 m/S 731 mmHg 49%
    12:00 +33°C° 0 mm 3 m/S 731 mmHg 42%
    13:00 +33°C° 0 mm 3 m/S 730 mmHg 42%
    14:00 +33°C° 0 mm 3 m/S 730 mmHg 41%
    15:00 +33°C° 0 mm 3 m/S 729 mmHg 41%
    16:00 +31°C° 0 mm 3 m/S 729 mmHg 46%
    17:00 +29°C° 0 mm 2 m/S 729 mmHg 52%
    18:00 +27°C° 0 mm 2 m/S 729 mmHg 57%
    19:00 +26°C° 0 mm 2 m/S 730 mmHg 60%
    20:00 +26°C° 0 mm 3 m/S 730 mmHg 62%
    21:00 +25°C° 0 mm 3 m/S 731 mmHg 65%
    22:00 +24°C° 0 mm 3 m/S 731 mmHg 71%
    23:00 +24°C° 0 mm 3 m/S 731 mmHg 78%

    28 Juni, Donnerstag

    Zeit Temperatur Niederschläge Wind Luftdruck Luftfeuchtigkeit
    00:00 +22°C° 0 mm 3 m/S 731 mmHg 84%
    01:00 +22°C° 0 mm 3 m/S 731 mmHg 87%
    02:00 +21°C° 0 mm 3 m/S 730 mmHg 90%
    03:00 +21°C° 0 mm 2 m/S 730 mmHg 92%
    04:00 +20°C° 0 mm 3 m/S 730 mmHg 92%
    05:00 +20°C° 0 mm 3 m/S 731 mmHg 92%
    06:00 +20°C° 0 mm 3 m/S 731 mmHg 92%
    07:00 +22°C° 0 mm 3 m/S 731 mmHg 85%
    08:00 +24°C° 0 mm 3 m/S 732 mmHg 77%
    09:00 +26°C° 0 mm 4 m/S 732 mmHg 69%
    10:00 +27°C° 0 mm 4 m/S 732 mmHg 64%
    11:00 +28°C° 0 mm 4 m/S 731 mmHg 58%
    12:00 +30°C° 0 mm 4 m/S 731 mmHg 52%
    13:00 +30°C° 0 mm 4 m/S 730 mmHg 51%
    14:00 +30°C° 0 mm 4 m/S 730 mmHg 50%
    15:00 +32°C° 0 mm 4 m/S 729 mmHg 49%
    16:00 +29°C° 0 mm 3 m/S 729 mmHg 55%
    17:00 +27°C° 0 mm 3 m/S 729 mmHg 62%
    18:00 +26°C° 0 mm 3 m/S 730 mmHg 69%
    19:00 +25°C° 0 mm 3 m/S 730 mmHg 70%
    20:00 +25°C° 0 mm 3 m/S 730 mmHg 71%
    21:00 +24°C° 0 mm 3 m/S 731 mmHg 71%
    22:00 +24°C° 0 mm 3 m/S 731 mmHg 74%
    23:00 +22°C° 0 mm 3 m/S 730 mmHg 76%

    29 Juni, Freitag

    Zeit Temperatur Niederschläge Wind Luftdruck Luftfeuchtigkeit
    00:00 +22°C° 0 mm 3 m/S 730 mmHg 78%
    01:00 +21°C° 0 mm 3 m/S 730 mmHg 82%
    02:00 +21°C° 0 mm 3 m/S 730 mmHg 85%
    03:00 +20°C° 0 mm 3 m/S 730 mmHg 89%
    04:00 +20°C° 0 mm 3 m/S 730 mmHg 89%
    05:00 +20°C° 0 mm 3 m/S 730 mmHg 88%
    06:00 +20°C° 0 mm 3 m/S 731 mmHg 88%
    07:00 +21°C° 0 mm 3 m/S 731 mmHg 79%
    08:00 +24°C° 0 mm 3 m/S 731 mmHg 70%
    09:00 +26°C° 0 mm 4 m/S 732 mmHg 62%
    10:00 +28°C° 0 mm 4 m/S 731 mmHg 56%
    11:00 +29°C° 0 mm 4 m/S 731 mmHg 50%
    12:00 +32°C° 0 mm 4 m/S 731 mmHg 44%
    13:00 +31°C° 0 mm 3 m/S 730 mmHg 43%
    14:00 +33°C° 0 mm 3 m/S 729 mmHg 41%
    15:00 +33°C° 0 mm 3 m/S 729 mmHg 40%
    16:00 +30°C° 0 mm 3 m/S 729 mmHg 44%
    17:00 +29°C° 0 mm 2 m/S 729 mmHg 49%
    18:00 +27°C° 0 mm 2 m/S 729 mmHg 54%
    19:00 +27°C° 0 mm 2 m/S 730 mmHg 57%
    20:00 +26°C° 0 mm 3 m/S 730 mmHg 61%
    21:00 +26°C° 0 mm 3 m/S 730 mmHg 64%
    22:00 +25°C° 0 mm 3 m/S 730 mmHg 70%
    23:00 +24°C° 0 mm 3 m/S 730 mmHg 75%
    Mehr zeigen